Actual water levels and discharges of Elbe river

Guaranteed water level and forecast    Ústí nad Labem-Střekov

Guaranteed water level
175 cm
on 20.10.2021 more information
Forecast
175 cm
on 21.10.2021 07:00
Tendency
Rising
on 21.10.2021 metodika tendence
Forecast
(Source data ČHMÚ a Povodí Labe)

Děčín

Date and time (UTC) H (cm) Q (m³/s)
21. 10. 2021 00:00 152 170
20. 10. 2021 23:00 149 165
20. 10. 2021 22:00 147 162
20. 10. 2021 21:00 145 159
20. 10. 2021 20:00 144 158
20. 10. 2021 19:00 143 156
20. 10. 2021 18:00 143 156
20. 10. 2021 17:00 142 155
20. 10. 2021 16:00 142 155
20. 10. 2021 15:00 142 155
20. 10. 2021 14:00 142 155
20. 10. 2021 13:00 142 155
20. 10. 2021 12:00 142 155

H - water level, Q - discharge

Ústí nad Labem

Date and time (UTC) H (cm) Q (m³/s)
21. 10. 2021 00:00 188 168
20. 10. 2021 23:00 187 167
20. 10. 2021 22:00 188 168
20. 10. 2021 21:00 188 168
20. 10. 2021 20:00 188 168
20. 10. 2021 19:00 186 165
20. 10. 2021 18:00 182 158
20. 10. 2021 17:00 181 156
20. 10. 2021 16:00 176 148
20. 10. 2021 15:00 177 150
20. 10. 2021 14:00 176 148
20. 10. 2021 13:00 175 146
20. 10. 2021 12:00 176 148

H - water level, Q - discharge
more information

Mělník

Date and time (UTC) H (cm) Q (m³/s)
21. 10. 2021 00:00 268 -
20. 10. 2021 23:00 265 -
20. 10. 2021 22:00 261 -
20. 10. 2021 21:00 259 -
20. 10. 2021 20:00 258 -
20. 10. 2021 19:00 260 -
20. 10. 2021 18:00 265 -
20. 10. 2021 17:00 269 -
20. 10. 2021 16:00 270 -
20. 10. 2021 15:00 263 -
20. 10. 2021 14:00 262 -
20. 10. 2021 13:00 265 -
20. 10. 2021 12:00 260 -

H - water level, Q - discharge
more information

Kostelec nad Labem

Date and time (UTC) H (cm) Q (m³/s)
21. 10. 2021 00:00 403 -
20. 10. 2021 23:00 403 31
20. 10. 2021 22:00 405 35
20. 10. 2021 21:00 404 40
20. 10. 2021 20:00 401 31
20. 10. 2021 19:00 403 23
20. 10. 2021 18:00 402 27
20. 10. 2021 17:00 402 27
20. 10. 2021 16:00 403 28
20. 10. 2021 15:00 403 33
20. 10. 2021 14:00 403 31
20. 10. 2021 13:00 402 26
20. 10. 2021 12:00 404 26

H - water level, Q - discharge
more information

Přelouč

Date and time (UTC) H (cm) Q (m³/s)
21. 10. 2021 00:00 44 17.2
20. 10. 2021 23:00 54 23
20. 10. 2021 22:00 56 24
20. 10. 2021 21:00 48 19
20. 10. 2021 20:00 38 14
20. 10. 2021 19:00 51 21
20. 10. 2021 18:00 57 25
20. 10. 2021 17:00 55 23
20. 10. 2021 16:00 50 20
20. 10. 2021 15:00 50 20
20. 10. 2021 14:00 49 20
20. 10. 2021 13:00 49 20
20. 10. 2021 12:00 48 19

H - water level, Q - discharge
more information

Němčice

Date and time (UTC) H (cm) Q (m³/s)
21. 10. 2021 00:00 72 14.8
20. 10. 2021 23:00 74 16
20. 10. 2021 22:00 72 15
20. 10. 2021 21:00 71 14
20. 10. 2021 20:00 72 15
20. 10. 2021 19:00 74 16
20. 10. 2021 18:00 75 16
20. 10. 2021 17:00 75 16
20. 10. 2021 16:00 76 16
20. 10. 2021 15:00 78 17
20. 10. 2021 14:00 81 18
20. 10. 2021 13:00 79 17
20. 10. 2021 12:00 73 15

H - water level, Q - discharge
Source data
Labe Basin Vltava Basin Povodí Moravy ČHMÚ